| time (UTC) | temp C | wind direction | speed KPH | gust KPH | rain 1hr cm | rain 24hr cm | rain mn cm | humidity % | barometer mb |
| 20260906203003 | 27 | 79 | 12.9 | 24.1 | 0.00 | 0.00 | 0.00 | 59 | 1012.2 |
| 20260906202503 | 27 | 90 | 12.9 | 24.1 | 0.00 | 0.00 | 0.00 | 60 | 1012.1 |
| 20260906202003 | 28 | 102 | 9.7 | 20.9 | 0.00 | 0.00 | 0.00 | 61 | 1012.1 |
| 20260906201503 | 27 | 94 | 11.3 | 20.9 | 0.00 | 0.00 | 0.00 | 63 | 1012.1 |
| 20260906201003 | 27 | 84 | 11.3 | 24.1 | 0.00 | 0.00 | 0.00 | 66 | 1012.2 |
| 20260906200503 | 27 | 87 | 9.7 | 24.1 | 0.00 | 0.00 | 0.00 | 64 | 1012.1 |
| 20260906200003 | 28 | 99 | 8.0 | 20.9 | 0.00 | 0.00 | 0.00 | 67 | 1012.0 |
| 20260906195503 | 27 | 94 | 9.7 | 20.9 | 0.00 | 0.00 | 0.00 | 70 | 1011.9 |
| 20260906195003 | 27 | 86 | 11.3 | 20.9 | 0.00 | 0.00 | 0.00 | 65 | 1012.0 |
| 20260906194503 | 27 | 84 | 11.3 | 20.9 | 0.00 | 0.00 | 0.00 | 68 | 1011.9 |
| 20260906194024 | 27 | 91 | 11.3 | 20.9 | 0.00 | 0.00 | 0.00 | 67 | 1012.1 |
| 20260906193503 | 27 | 101 | 11.3 | 22.5 | 0.00 | 0.00 | 0.00 | 68 | 1012.0 |
| 20260906193024 | 27 | 90 | 11.3 | 22.5 | 0.00 | 0.00 | 0.00 | 67 | 1012.1 |
| 20260906192503 | 27 | 75 | 9.7 | 22.5 | 0.00 | 0.00 | 0.00 | 67 | 1012.2 |
| 20260906192003 | 27 | 87 | 11.3 | 20.9 | 0.00 | 0.00 | 0.00 | 67 | 1012.1 |
| 20260906191524 | 27 | 94 | 11.3 | 22.5 | 0.00 | 0.00 | 0.00 | 66 | 1012.2 |
| 20260906191003 | 27 | 87 | 11.3 | 22.5 | 0.00 | 0.00 | 0.00 | 67 | 1012.1 |
| 20260906190503 | 28 | 80 | 11.3 | 22.5 | 0.00 | 0.00 | 0.00 | 65 | 1012.2 |
| 20260906190003 | 27 | 87 | 12.9 | 22.5 | 0.00 | 0.00 | 0.00 | 70 | 1012.3 |
| 20260906185503 | 27 | 88 | 12.9 | 22.5 | 0.00 | 0.00 | 0.00 | 67 | 1012.3 |
| 20260906185003 | 28 | 93 | 11.3 | 22.5 | 0.00 | 0.00 | 0.00 | 70 | 1012.3 |
| 20260906184524 | 27 | 93 | 11.3 | 19.3 | 0.00 | 0.00 | 0.00 | 66 | 1012.4 |
| 20260906184003 | 27 | 89 | 11.3 | 22.5 | 0.00 | 0.00 | 0.00 | 66 | 1012.3 |
| 20260906183503 | 27 | 99 | 12.9 | 22.5 | 0.00 | 0.00 | 0.00 | 68 | 1012.4 |
| 20260906183024 | 27 | 97 | 11.3 | 22.5 | 0.00 | 0.00 | 0.00 | 69 | 1012.4 |
| 20260906182503 | 27 | 84 | 12.9 | 22.5 | 0.00 | 0.00 | 0.00 | 69 | 1012.4 |
| 20260906182003 | 27 | 80 | 12.9 | 20.9 | 0.00 | 0.00 | 0.00 | 71 | 1012.4 |
| 20260906181503 | 27 | 82 | 9.7 | 20.9 | 0.00 | 0.00 | 0.00 | 70 | 1012.4 |
| 20260906181003 | 27 | 88 | 11.3 | 19.3 | 0.00 | 0.00 | 0.00 | 76 | 1012.5 |
| 20260906180503 | 26 | 93 | 12.9 | 24.1 | 0.00 | 0.00 | 0.00 | 73 | 1012.5 |
| 20260906180003 | 27 | 102 | 11.3 | 24.1 | 0.00 | 0.00 | 0.00 | 72 | 1012.6 |
| 20260906175503 | 27 | 97 | 8.0 | 17.7 | 0.00 | 0.00 | 0.00 | 75 | 1012.8 |
| 20260906175024 | 26 | 82 | 11.3 | 20.9 | 0.00 | 0.00 | 0.00 | 76 | 1012.7 |
| 20260906174503 | 26 | 97 | 11.3 | 20.9 | 0.00 | 0.00 | 0.00 | 73 | 1012.8 |
| 20260906174003 | 27 | 106 | 9.7 | 20.9 | 0.00 | 0.00 | 0.00 | 75 | 1012.8 |
| 20260906173503 | 27 | 96 | 11.3 | 19.3 | 0.00 | 0.00 | 0.00 | 76 | 1012.8 |
| 20260906173003 | 26 | 97 | 9.7 | 22.5 | 0.00 | 0.00 | 0.00 | 78 | 1012.7 |
| 20260906172503 | 26 | 83 | 11.3 | 22.5 | 0.00 | 0.00 | 0.00 | 75 | 1012.6 |
| 20260906172003 | 26 | 69 | 11.3 | 20.9 | 0.00 | 0.00 | 0.00 | 78 | 1012.6 |
| 20260906171503 | 26 | 69 | 9.7 | 17.7 | 0.00 | 0.00 | 0.00 | 78 | 1012.7 |
| 20260906171003 | 26 | 80 | 11.3 | 17.7 | 0.00 | 0.00 | 0.00 | 76 | 1012.8 |
| 20260906170503 | 27 | 99 | 11.3 | 22.5 | 0.00 | 0.00 | 0.00 | 79 | 1012.9 |
| 20260906170003 | 26 | 102 | 11.3 | 22.5 | 0.00 | 0.00 | 0.00 | 78 | 1013.0 |
| 20260906165524 | 26 | 96 | 9.7 | 22.5 | 0.00 | 0.00 | 0.00 | 79 | 1013.1 |
| 20260906165024 | 26 | 99 | 8.0 | 17.7 | 0.00 | 0.00 | 0.00 | 79 | 1013.2 |
| 20260906164503 | 26 | 105 | 8.0 | 19.3 | 0.00 | 0.00 | 0.00 | 83 | 1013.1 |
| 20260906164024 | 26 | 101 | 8.0 | 19.3 | 0.00 | 0.00 | 0.00 | 82 | 1013.2 |
| 20260906163503 | 25 | 101 | 9.7 | 19.3 | 0.00 | 0.00 | 0.00 | 82 | 1013.2 |
| 20260906163003 | 25 | 96 | 9.7 | 19.3 | 0.00 | 0.00 | 0.00 | 82 | 1013.2 |
| 20260906162503 | 25 | 82 | 9.7 | 16.1 | 0.00 | 0.00 | 0.00 | 83 | 1013.2 |
| 20260906162003 | 25 | 78 | 9.7 | 16.1 | 0.00 | 0.00 | 0.00 | 84 | 1013.2 |
| 20260906161503 | 25 | 70 | 8.0 | 16.1 | 0.00 | 0.00 | 0.00 | 84 | 1013.2 |
| 20260906161003 | 25 | 69 | 8.0 | 16.1 | 0.00 | 0.00 | 0.00 | 86 | 1013.3 |
| 20260906160503 | 25 | 78 | 6.4 | 14.5 | 0.00 | 0.00 | 0.00 | 84 | 1013.4 |
| 20260906160003 | 25 | 89 | 8.0 | 16.1 | 0.00 | 0.00 | 0.00 | 85 | 1013.4 |
| 20260906155503 | 25 | 87 | 6.4 | 16.1 | 0.00 | 0.00 | 0.00 | 86 | 1013.4 |
| 20260906155024 | 25 | 81 | 8.0 | 17.7 | 0.00 | 0.00 | 0.00 | 86 | 1013.4 |
| 20260906154503 | 25 | 105 | 8.0 | 17.7 | 0.00 | 0.00 | 0.00 | 86 | 1013.5 |
| 20260906154003 | 25 | 119 | 6.4 | 14.5 | 0.00 | 0.00 | 0.00 | 86 | 1013.4 |
| 20260906153503 | 24 | 113 | 6.4 | 14.5 | 0.00 | 0.00 | 0.00 | 89 | 1013.4 |
| 20260906153003 | 23 | 106 | 9.7 | 17.7 | 0.00 | 0.00 | 0.00 | 88 | 1013.4 |
| 20260906152503 | 23 | 102 | 8.0 | 17.7 | 0.00 | 0.00 | 0.00 | 89 | 1013.5 |
| 20260906152003 | 23 | 100 | 8.0 | 17.7 | 0.00 | 0.00 | 0.00 | 91 | 1013.4 |
| 20260906151504 | 23 | 101 | 9.7 | 17.7 | 0.00 | 0.00 | 0.00 | 91 | 1013.4 |
| 20260906151003 | 23 | 102 | 9.7 | 16.1 | 0.00 | 0.00 | 0.00 | 92 | 1013.2 |
| 20260906150503 | 22 | 92 | 9.7 | 17.7 | 0.00 | 0.00 | 0.00 | 92 | 1013.3 |
| 20260906150003 | 22 | 82 | 9.7 | 17.7 | 0.00 | 0.00 | 0.00 | 93 | 1013.2 |
| 20260906145503 | 22 | 72 | 9.7 | 17.7 | 0.00 | 0.00 | 0.00 | 94 | 1013.2 |
| 20260906145003 | 22 | 74 | 9.7 | 17.7 | 0.00 | 0.00 | 0.00 | 93 | 1013.3 |
| 20260906144503 | 22 | 85 | 8.0 | 16.1 | 0.00 | 0.00 | 0.00 | 93 | 1013.2 |
| 20260906144003 | 22 | 91 | 8.0 | 17.7 | 0.00 | 0.00 | 0.00 | 93 | 1013.2 |
| 20260906143503 | 22 | 96 | 8.0 | 19.3 | 0.00 | 0.00 | 0.00 | 94 | 1013.2 |
| 20260906143003 | 22 | 97 | 9.7 | 19.3 | 0.00 | 0.00 | 0.00 | 93 | 1013.2 |
| 20260906142524 | 22 | 90 | 8.0 | 16.1 | 0.00 | 0.00 | 0.00 | 93 | 1013.1 |
| 20260906142003 | 22 | 91 | 9.7 | 22.5 | 0.00 | 0.00 | 0.00 | 94 | 1013.1 |
| 20260906141503 | 22 | 94 | 9.7 | 22.5 | 0.00 | 0.00 | 0.00 | 94 | 1013.0 |
| 20260906141003 | 22 | 88 | 9.7 | 19.3 | 0.00 | 0.00 | 0.00 | 94 | 1012.9 |
| 20260906140503 | 22 | 87 | 9.7 | 16.1 | 0.00 | 0.00 | 0.00 | 94 | 1012.8 |
| 20260906140024 | 22 | 84 | 9.7 | 16.1 | 0.00 | 0.00 | 0.00 | 94 | 1012.8 |
| 20260906135524 | 22 | 82 | 9.7 | 22.5 | 0.00 | 0.00 | 0.00 | 94 | 1012.9 |
| 20260906135003 | 22 | 85 | 8.0 | 22.5 | 0.00 | 0.00 | 0.00 | 94 | 1012.9 |
| 20260906134503 | 22 | 89 | 8.0 | 16.1 | 0.00 | 0.00 | 0.00 | 94 | 1012.9 |
| 20260906134003 | 22 | 83 | 9.7 | 17.7 | 0.00 | 0.00 | 0.00 | 94 | 1012.9 |
| 20260906133503 | 22 | 81 | 9.7 | 17.7 | 0.00 | 0.00 | 0.00 | 94 | 1012.8 |
| 20260906133003 | 22 | 90 | 8.0 | 16.1 | 0.00 | 0.00 | 0.00 | 94 | 1012.7 |
| 20260906132503 | 22 | 89 | 9.7 | 16.1 | 0.00 | 0.00 | 0.00 | 94 | 1012.8 |
| 20260906132003 | 22 | 80 | 8.0 | 16.1 | 0.00 | 0.00 | 0.00 | 94 | 1012.7 |
| 20260906131503 | 22 | 82 | 6.4 | 14.5 | 0.00 | 0.00 | 0.00 | 95 | 1012.7 |
| 20260906131003 | 22 | 90 | 6.4 | 12.9 | 0.00 | 0.00 | 0.00 | 95 | 1012.6 |
| 20260906130503 | 22 | 94 | 8.0 | 16.1 | 0.00 | 0.00 | 0.00 | 95 | 1012.7 |
| 20260906130003 | 22 | 96 | 9.7 | 19.3 | 0.00 | 0.00 | 0.00 | 95 | 1012.6 |
| 20260906125503 | 22 | 94 | 9.7 | 19.3 | 0.00 | 0.00 | 0.00 | 95 | 1012.5 |
| 20260906125024 | 22 | 92 | 9.7 | 19.3 | 0.00 | 0.00 | 0.00 | 95 | 1012.3 |
| 20260906124503 | 22 | 88 | 9.7 | 17.7 | 0.00 | 0.00 | 0.00 | 95 | 1012.4 |
| 20260906124003 | 22 | 87 | 9.7 | 17.7 | 0.00 | 0.00 | 0.00 | 95 | 1012.3 |
| 20260906123503 | 22 | 86 | 8.0 | 16.1 | 0.00 | 0.00 | 0.00 | 95 | 1012.2 |
| 20260906123003 | 22 | 85 | 8.0 | 17.7 | 0.00 | 0.00 | 0.00 | 96 | 1012.2 |
| 20260906122503 | 22 | 88 | 9.7 | 17.7 | 0.00 | 0.00 | 0.00 | 96 | 1012.1 |
| 20260906122024 | 22 | 85 | 9.7 | 17.7 | 0.00 | 0.00 | 0.00 | 96 | 1011.9 |
| 20260906121503 | 22 | 88 | 9.7 | 22.5 | 0.00 | 0.03 | 0.00 | 96 | 1011.8 |
| 20260906121003 | 22 | 92 | 9.7 | 22.5 | 0.00 | 0.03 | 0.00 | 96 | 1011.7 |
| 20260906120503 | 22 | 95 | 11.3 | 22.5 | 0.00 | 0.05 | 0.00 | 96 | 1011.6 |
| 20260906120003 | 22 | 92 | 11.3 | 22.5 | 0.00 | 0.05 | 0.00 | 96 | 1011.5 |
| 20260906115524 | 22 | 92 | 9.7 | 22.5 | 0.00 | 0.05 | 0.00 | 96 | 1011.3 |
| 20260906115003 | 22 | 95 | 8.0 | 19.3 | 0.00 | 0.05 | 0.00 | 96 | 1011.3 |
| 20260906114503 | 21 | 92 | 8.0 | 16.1 | 0.00 | 0.05 | 0.00 | 96 | 1011.3 |
| 20260906114003 | 22 | 91 | 8.0 | 19.3 | 0.00 | 0.05 | 0.00 | 96 | 1011.2 |
| 20260906113524 | 21 | 88 | 11.3 | 20.9 | 0.00 | 0.05 | 0.00 | 96 | 1011.2 |
| 20260906113003 | 21 | 86 | 11.3 | 20.9 | 0.00 | 0.08 | 0.00 | 96 | 1011.3 |
| 20260906112503 | 21 | 84 | 8.0 | 16.1 | 0.00 | 0.08 | 0.00 | 96 | 1011.3 |
| 20260906112003 | 21 | 81 | 6.4 | 14.5 | 0.00 | 0.10 | 0.00 | 96 | 1011.3 |
| 20260906111503 | 21 | 81 | 6.4 | 14.5 | 0.00 | 0.10 | 0.00 | 96 | 1011.2 |
| 20260906111003 | 21 | 79 | 8.0 | 14.5 | 0.00 | 0.18 | 0.00 | 96 | 1011.2 |
| 20260906110524 | 21 | 76 | 8.0 | 14.5 | 0.00 | 0.25 | 0.00 | 96 | 1011.2 |
| 20260906110024 | 21 | 83 | 6.4 | 14.5 | 0.00 | 0.41 | 0.00 | 96 | 1011.1 |
| 20260906105503 | 21 | 79 | 6.4 | 12.9 | 0.00 | 0.58 | 0.00 | 96 | 1011.1 |
| 20260906105003 | 21 | 79 | 8.0 | 16.1 | 0.00 | 0.74 | 0.00 | 96 | 1011.0 |
| 20260906104503 | 21 | 83 | 8.0 | 17.7 | 0.00 | 0.76 | 0.00 | 96 | 1010.9 |
| 20260906104003 | 21 | 78 | 8.0 | 17.7 | 0.00 | 0.76 | 0.00 | 96 | 1010.8 |
| 20260906103503 | 21 | 79 | 8.0 | 14.5 | 0.00 | 0.76 | 0.00 | 96 | 1010.9 |
| 20260906103003 | 21 | 84 | 8.0 | 14.5 | 0.00 | 0.76 | 0.00 | 96 | 1010.8 |
| 20260906102524 | 21 | 84 | 8.0 | 16.1 | 0.00 | 0.76 | 0.00 | 96 | 1010.8 |
| 20260906102003 | 21 | 82 | 9.7 | 16.1 | 0.00 | 0.76 | 0.00 | 96 | 1010.7 |
| 20260906101503 | 21 | 81 | 8.0 | 16.1 | 0.00 | 0.76 | 0.00 | 96 | 1010.8 |
| 20260906101003 | 21 | 84 | 6.4 | 12.9 | 0.00 | 0.76 | 0.00 | 95 | 1010.7 |
| 20260906100503 | 21 | 84 | 6.4 | 11.3 | 0.00 | 0.76 | 0.00 | 95 | 1010.7 |
| 20260906100003 | 22 | 76 | 6.4 | 11.3 | 0.00 | 0.76 | 0.00 | 95 | 1010.6 |
| 20260906095524 | 22 | 75 | 6.4 | 12.9 | 0.00 | 0.76 | 0.00 | 95 | 1010.8 |
| 20260906095003 | 22 | 78 | 8.0 | 12.9 | 0.00 | 0.76 | 0.00 | 95 | 1010.6 |
| 20260906094524 | 22 | 79 | 8.0 | 12.9 | 0.00 | 0.76 | 0.00 | 95 | 1010.6 |
| 20260906094003 | 22 | 82 | 6.4 | 11.3 | 0.00 | 0.76 | 0.00 | 95 | 1010.5 |
| 20260906093503 | 22 | 84 | 6.4 | 11.3 | 0.00 | 0.76 | 0.00 | 95 | 1010.5 |
| 20260906093003 | 22 | 92 | 4.8 | 11.3 | 0.00 | 0.76 | 0.00 | 94 | 1010.6 |
| 20260906092503 | 22 | 96 | 4.8 | 11.3 | 0.00 | 0.76 | 0.00 | 94 | 1010.5 |
| 20260906092003 | 22 | 51 | 3.2 | 9.7 | 0.00 | 0.76 | 0.00 | 94 | 1010.5 |
| 20260906091503 | 22 | 41 | 3.2 | 8.0 | 0.00 | 0.76 | 0.00 | 94 | 1010.7 |
| 20260906091003 | 22 | 32 | 3.2 | 8.0 | 0.00 | 0.76 | 0.00 | 94 | 1010.5 |
| 20260906090503 | 22 | 5 | 3.2 | 8.0 | 0.00 | 0.76 | 0.00 | 94 | 1010.5 |
| 20260906090003 | 22 | 50 | 3.2 | 8.0 | 0.00 | 0.76 | 0.00 | 94 | 1010.5 |
| 20260906085503 | 22 | 85 | 1.6 | 6.4 | 0.00 | 0.76 | 0.00 | 94 | 1010.4 |
| 20260906085003 | 22 | 120 | 1.6 | 3.2 | 0.00 | 0.76 | 0.00 | 94 | 1010.3 |
| 20260906084503 | 22 | 123 | 1.6 | 6.4 | 0.00 | 0.76 | 0.00 | 94 | 1010.2 |
| 20260906084024 | 22 | 85 | 3.2 | 8.0 | 0.00 | 0.76 | 0.00 | 94 | 1010.2 |
| 20260906083503 | 22 | 332 | 3.2 | 8.0 | 0.00 | 0.76 | 0.00 | 94 | 1010.4 |
| 20260906083003 | 22 | 281 | 1.6 | 3.2 | 0.00 | 0.76 | 0.00 | 94 | 1010.4 |
| 20260906082503 | 22 | 332 | 1.6 | 3.2 | 0.00 | 0.76 | 0.00 | 94 | 1010.3 |
| 20260906082024 | 22 | 298 | 1.6 | 3.2 | 0.00 | 0.76 | 0.00 | 94 | 1010.3 |
| 20260906081503 | 22 | 283 | 1.6 | 4.8 | 0.00 | 0.76 | 0.00 | 94 | 1010.3 |
| 20260906081003 | 22 | 323 | 1.6 | 6.4 | 0.00 | 0.76 | 0.00 | 94 | 1010.1 |
| 20260906080503 | 22 | 28 | 1.6 | 6.4 | 0.00 | 0.76 | 0.00 | 94 | 1010.1 |
| 20260906080003 | 22 | 77 | 1.6 | 8.0 | 0.00 | 0.76 | 0.00 | 94 | 1010.1 |
| 20260906075503 | 22 | 77 | 3.2 | 8.0 | 0.00 | 0.76 | 0.00 | 94 | 1010.0 |
| 20260906075003 | 22 | 71 | 4.8 | 9.7 | 0.00 | 0.76 | 0.00 | 94 | 1010.0 |
| 20260906074503 | 22 | 69 | 4.8 | 9.7 | 0.00 | 0.76 | 0.00 | 94 | 1010.0 |
| 20260906074003 | 22 | 65 | 4.8 | 11.3 | 0.00 | 0.76 | 0.00 | 94 | 1010.0 |
| 20260906073503 | 22 | 54 | 4.8 | 11.3 | 0.00 | 0.76 | 0.00 | 94 | 1010.1 |
| 20260906073003 | 22 | 21 | 3.2 | 9.7 | 0.00 | 0.76 | 0.00 | 94 | 1010.1 |
| 20260906072503 | 22 | 32 | 3.2 | 6.4 | 0.00 | 0.76 | 0.00 | 94 | 1010.1 |
| 20260906072003 | 22 | 55 | 3.2 | 6.4 | 0.00 | 0.76 | 0.00 | 94 | 1010.2 |
| 20260906071503 | 22 | 67 | 3.2 | 9.7 | 0.00 | 0.76 | 0.00 | 94 | 1010.1 |
| 20260906071003 | 22 | 67 | 3.2 | 9.7 | 0.00 | 0.76 | 0.00 | 94 | 1010.0 |
| 20260906070503 | 22 | 56 | 3.2 | 8.0 | 0.00 | 0.76 | 0.00 | 94 | 1010.1 |
| 20260906070003 | 22 | 45 | 3.2 | 8.0 | 0.00 | 0.76 | 0.00 | 94 | 1010.1 |
| 20260906065503 | 22 | 40 | 1.6 | 4.8 | 0.00 | 0.76 | 0.00 | 94 | 1010.2 |
| 20260906065003 | 22 | 72 | 3.2 | 6.4 | 0.00 | 0.76 | 0.00 | 94 | 1010.2 |
| 20260906064503 | 22 | 85 | 3.2 | 6.4 | 0.00 | 0.76 | 0.00 | 94 | 1010.1 |
| 20260906064003 | 22 | 60 | 3.2 | 4.8 | 0.00 | 0.76 | 0.00 | 94 | 1010.2 |
| 20260906063503 | 22 | 36 | 1.6 | 4.8 | 0.00 | 0.76 | 0.00 | 94 | 1010.3 |
| 20260906063003 | 22 | 38 | 1.6 | 4.8 | 0.00 | 0.76 | 0.00 | 94 | 1010.5 |
| 20260906062503 | 22 | 20 | 1.6 | 4.8 | 0.00 | 0.76 | 0.00 | 94 | 1010.4 |
| 20260906062003 | 22 | 27 | 1.6 | 3.2 | 0.00 | 0.76 | 0.00 | 93 | 1010.6 |
| 20260906061503 | 22 | 28 | 0.0 | 3.2 | 0.00 | 0.76 | 0.00 | 93 | 1010.7 |
| 20260906061003 | 22 | 15 | 1.6 | 3.2 | 0.00 | 0.76 | 0.00 | 93 | 1010.6 |
| 20260906060503 | 22 | 15 | 1.6 | 3.2 | 0.00 | 0.76 | 0.00 | 93 | 1010.7 |
| 20260906060003 | 22 | 26 | 1.6 | 3.2 | 0.00 | 0.76 | 0.00 | 93 | 1010.7 |
| 20260906055503 | 22 | 41 | 0.0 | 3.2 | 0.00 | 0.76 | 0.00 | 93 | 1010.7 |
| 20260906055003 | 22 | 95 | 1.6 | 4.8 | 0.00 | 0.76 | 0.00 | 93 | 1010.7 |
| 20260906054503 | 22 | 97 | 3.2 | 8.0 | 0.00 | 0.76 | 0.00 | 93 | 1010.7 |
| 20260906054003 | 22 | 97 | 3.2 | 8.0 | 0.00 | 0.76 | 0.00 | 93 | 1010.8 |
| 20260906053524 | 22 | 101 | 1.6 | 8.0 | 0.00 | 0.76 | 0.00 | 93 | 1010.9 |
| 20260906053003 | 22 | 119 | 0.0 | 4.8 | 0.00 | 0.76 | 0.00 | 93 | 1011.0 |
| 20260906052503 | 22 | 0 | 0.0 | 0.0 | 0.00 | 0.76 | 0.00 | 93 | 1010.9 |
| 20260906052003 | 22 | 0 | 0.0 | 0.0 | 0.00 | 0.76 | 0.00 | 92 | 1010.8 |
| 20260906051503 | 22 | 152 | 0.0 | 1.6 | 0.00 | 0.76 | 0.00 | 92 | 1010.8 |
| 20260906051003 | 22 | 152 | 0.0 | 1.6 | 0.00 | 0.76 | 0.00 | 92 | 1010.8 |
| 20260906050524 | 22 | 152 | 0.0 | 1.6 | 0.00 | 0.76 | 0.00 | 92 | 1010.9 |
| 20260906050003 | 22 | 152 | 0.0 | 1.6 | 0.00 | 0.76 | 0.00 | 92 | 1010.8 |
| 20260906045503 | 22 | 147 | 0.0 | 3.2 | 0.00 | 0.76 | 0.00 | 92 | 1010.8 |
| 20260906045003 | 22 | 126 | 1.6 | 4.8 | 0.00 | 0.76 | 0.00 | 92 | 1010.8 |
| 20260906044503 | 22 | 105 | 1.6 | 4.8 | 0.00 | 0.76 | 0.00 | 91 | 1010.7 |
| 20260906044024 | 22 | 101 | 3.2 | 8.0 | 0.00 | 0.76 | 0.00 | 91 | 1010.8 |
| 20260906043503 | 22 | 94 | 3.2 | 8.0 | 0.00 | 0.76 | 0.00 | 91 | 1010.7 |
| 20260906043003 | 22 | 69 | 0.0 | 4.8 | 0.00 | 0.76 | 0.00 | 90 | 1010.8 |
| 20260906042503 | 22 | 70 | 0.0 | 3.2 | 0.00 | 0.76 | 0.00 | 90 | 1010.8 |
| 20260906042003 | 22 | 82 | 0.0 | 3.2 | 0.00 | 0.76 | 0.00 | 90 | 1010.8 |
| 20260906041503 | 22 | 99 | 0.0 | 3.2 | 0.00 | 0.76 | 0.00 | 90 | 1010.7 |
| 20260906041003 | 22 | 107 | 0.0 | 3.2 | 0.00 | 0.76 | 0.00 | 89 | 1010.7 |
| 20260906040503 | 23 | 104 | 1.6 | 4.8 | 0.00 | 0.76 | 0.00 | 89 | 1010.6 |
| 20260906040003 | 23 | 103 | 3.2 | 4.8 | 0.00 | 0.76 | 0.00 | 89 | 1010.5 |
| 20260906035503 | 23 | 100 | 3.2 | 8.0 | 0.00 | 0.76 | 0.76 | 89 | 1010.4 |
| 20260906035003 | 23 | 99 | 3.2 | 8.0 | 0.00 | 0.76 | 0.76 | 89 | 1010.4 |
| 20260906034503 | 23 | 104 | 4.8 | 8.0 | 0.00 | 0.76 | 0.76 | 89 | 1010.3 |
| 20260906034003 | 23 | 107 | 4.8 | 8.0 | 0.00 | 0.76 | 0.76 | 89 | 1010.3 |
| 20260906033503 | 23 | 108 | 3.2 | 8.0 | 0.00 | 0.76 | 0.76 | 88 | 1010.3 |
| 20260906033003 | 23 | 101 | 4.8 | 9.7 | 0.00 | 0.76 | 0.76 | 88 | 1010.4 |
| 20260906032503 | 23 | 90 | 4.8 | 9.7 | 0.00 | 0.76 | 0.76 | 88 | 1010.4 |
| 20260906032003 | 23 | 74 | 3.2 | 8.0 | 0.00 | 0.76 | 0.76 | 88 | 1010.4 |
| 20260906031503 | 23 | 56 | 1.6 | 4.8 | 0.00 | 0.76 | 0.76 | 87 | 1010.4 |
| 20260906031003 | 23 | 56 | 1.6 | 4.8 | 0.00 | 0.76 | 0.76 | 86 | 1010.5 |
| 20260906030503 | 23 | 54 | 1.6 | 4.8 | 0.00 | 0.76 | 0.76 | 86 | 1010.5 |
| 20260906030024 | 23 | 56 | 3.2 | 4.8 | 0.00 | 0.76 | 0.76 | 86 | 1010.5 |
| 20260906025503 | 23 | 61 | 1.6 | 4.8 | 0.00 | 0.76 | 0.76 | 86 | 1010.5 |
| 20260906025024 | 24 | 51 | 1.6 | 3.2 | 0.00 | 0.76 | 0.76 | 84 | 1010.3 |
| 20260906024503 | 24 | 24 | 1.6 | 4.8 | 0.00 | 0.76 | 0.76 | 84 | 1010.2 |
| 20260906024003 | 24 | 49 | 3.2 | 8.0 | 0.00 | 0.76 | 0.76 | 84 | 1010.4 |
| 20260906023503 | 24 | 347 | 3.2 | 11.3 | 0.00 | 0.76 | 0.76 | 84 | 1010.2 |
| 20260906023003 | 24 | 355 | 4.8 | 11.3 | 0.00 | 0.76 | 0.76 | 84 | 1010.2 |
| 20260906022503 | 24 | 60 | 6.4 | 12.9 | 0.00 | 0.76 | 0.76 | 84 | 1010.5 |
| 20260906022003 | 24 | 91 | 6.4 | 12.9 | 0.00 | 0.76 | 0.76 | 84 | 1010.1 |
| 20260906021503 | 24 | 103 | 4.8 | 12.9 | 0.00 | 0.76 | 0.76 | 85 | 1010.3 |
| 20260906021003 | 24 | 106 | 4.8 | 12.9 | 0.00 | 0.76 | 0.76 | 87 | 1010.2 |
| 20260906020503 | 23 | 95 | 4.8 | 12.9 | 0.00 | 0.76 | 0.76 | 88 | 1010.3 |
| 20260906020003 | 23 | 85 | 3.2 | 9.7 | 0.00 | 0.76 | 0.76 | 90 | 1010.5 |
| 20260906015503 | 23 | 47 | 1.6 | 4.8 | 0.00 | 0.76 | 0.76 | 92 | 1010.3 |
| 20260906015004 | 23 | 8 | 1.6 | 3.2 | 0.00 | 0.76 | 0.76 | 92 | 1010.1 |
| 20260906014524 | 23 | 0 | 0.0 | 0.0 | 0.00 | 0.76 | 0.76 | 92 | 1010.1 |
| 20260906014003 | 23 | 0 | 0.0 | 0.0 | 0.00 | 0.76 | 0.76 | 91 | 1009.9 |
| 20260906013503 | 23 | 0 | 0.0 | 0.0 | 0.00 | 0.76 | 0.76 | 91 | 1009.9 |
| 20260906013003 | 23 | 0 | 0.0 | 0.0 | 0.00 | 0.76 | 0.76 | 90 | 1010.0 |
| 20260906012503 | 23 | 0 | 0.0 | 0.0 | 0.00 | 0.76 | 0.76 | 91 | 1009.9 |
| 20260906012003 | 23 | 77 | 0.0 | 1.6 | 0.00 | 0.76 | 0.76 | 90 | 1009.8 |
| 20260906011503 | 23 | 77 | 0.0 | 1.6 | 0.00 | 0.76 | 0.76 | 90 | 1009.7 |
| 20260906011024 | 23 | 78 | 0.0 | 1.6 | 0.00 | 0.76 | 0.76 | 90 | 1009.5 |
| 20260906010503 | 23 | 77 | 0.0 | 3.2 | 0.00 | 0.76 | 0.76 | 89 | 1009.4 |
| 20260906010003 | 24 | 77 | 0.0 | 3.2 | 0.00 | 0.76 | 0.76 | 90 | 1009.5 |
| 20260906005503 | 24 | 77 | 0.0 | 1.6 | 0.00 | 0.76 | 0.76 | 89 | 1009.6 |
| 20260906005003 | 24 | 77 | 0.0 | 1.6 | 0.00 | 0.76 | 0.76 | 88 | 1009.4 |
| 20260906004503 | 24 | 93 | 0.0 | 3.2 | 0.00 | 0.76 | 0.76 | 88 | 1009.4 |
| 20260906004003 | 24 | 96 | 1.6 | 3.2 | 0.00 | 0.76 | 0.76 | 88 | 1009.3 |
| 20260906003503 | 24 | 121 | 1.6 | 4.8 | 0.00 | 0.76 | 0.76 | 87 | 1009.3 |
| 20260906003003 | 24 | 237 | 1.6 | 4.8 | 0.00 | 0.76 | 0.76 | 88 | 1009.3 |
| 20260906002503 | 25 | 254 | 1.6 | 3.2 | 0.00 | 0.76 | 0.76 | 87 | 1009.2 |
| 20260906002003 | 25 | 254 | 0.0 | 3.2 | 0.00 | 0.76 | 0.76 | 85 | 1009.3 |
| 20260906001503 | 25 | 255 | 0.0 | 1.6 | 0.00 | 0.76 | 0.76 | 85 | 1009.1 |
| 20260906001003 | 25 | 235 | 0.0 | 3.2 | 0.00 | 0.76 | 0.76 | 83 | 1009.1 |
| 20260906000524 | 25 | 148 | 1.6 | 3.2 | 0.00 | 0.76 | 0.76 | 82 | 1009.3 |
| 20260906000003 | 26 | 125 | 1.6 | 3.2 | 0.00 | 0.76 | 0.76 | 81 | 1009.4 |
| 20260905235503 | 26 | 125 | 0.0 | 1.6 | 0.00 | 0.76 | 0.76 | 79 | 1009.6 |
| 20260905235003 | 26 | 125 | 0.0 | 1.6 | 0.00 | 0.76 | 0.76 | 77 | 1009.4 |
| 20260905234503 | 26 | 125 | 0.0 | 3.2 | 0.00 | 0.76 | 0.76 | 76 | 1009.5 |
| 20260905234003 | 26 | 117 | 0.0 | 3.2 | 0.00 | 0.76 | 0.76 | 73 | 1009.7 |
| 20260905233503 | 26 | 96 | 0.0 | 3.2 | 0.00 | 0.76 | 0.76 | 73 | 1009.6 |
| 20260905233024 | 27 | 71 | 1.6 | 8.0 | 0.00 | 0.76 | 0.76 | 73 | 1009.6 |
| 20260905232524 | 27 | 87 | 3.2 | 11.3 | 0.00 | 0.76 | 0.76 | 72 | 1009.7 |
| 20260905232003 | 27 | 95 | 6.4 | 12.9 | 0.00 | 0.76 | 0.76 | 71 | 1009.9 |
| 20260905231503 | 27 | 94 | 8.0 | 16.1 | 0.00 | 0.76 | 0.76 | 71 | 1010.0 |
| 20260905231003 | 27 | 94 | 9.7 | 16.1 | 0.00 | 0.76 | 0.76 | 70 | 1010.0 |
| 20260905230503 | 27 | 91 | 9.7 | 17.7 | 0.00 | 0.76 | 0.76 | 69 | 1010.0 |
| 20260905230024 | 28 | 93 | 9.7 | 17.7 | 0.00 | 0.76 | 0.76 | 68 | 1010.0 |
| 20260905225503 | 28 | 98 | 9.7 | 17.7 | 0.00 | 0.76 | 0.76 | 69 | 1010.1 |
| 20260905225024 | 28 | 96 | 9.7 | 20.9 | 0.00 | 0.76 | 0.76 | 67 | 1010.0 |
| 20260905224503 | 29 | 100 | 9.7 | 20.9 | 0.00 | 0.76 | 0.76 | 66 | 1009.8 |
| 20260905224003 | 30 | 99 | 9.7 | 16.1 | 0.00 | 0.76 | 0.76 | 66 | 1009.9 |
| 20260905223524 | 30 | 85 | 9.7 | 24.1 | 0.00 | 0.76 | 0.76 | 62 | 1009.7 |
| 20260905223003 | 32 | 34 | 6.4 | 24.1 | 0.00 | 0.76 | 0.76 | 59 | 1009.7 |
| 20260905222503 | 33 | 291 | 3.2 | 6.4 | 0.00 | 0.76 | 0.76 | 61 | 1009.5 |
| 20260905222003 | 33 | 288 | 3.2 | 8.0 | 0.00 | 0.76 | 0.76 | 61 | 1009.4 |
| 20260905221524 | 33 | 289 | 3.2 | 8.0 | 0.00 | 0.76 | 0.76 | 58 | 1009.4 |
| 20260905221003 | 33 | 302 | 1.6 | 4.8 | 0.00 | 0.76 | 0.76 | 61 | 1009.4 |
| 20260905220503 | 33 | 300 | 1.6 | 4.8 | 0.00 | 0.76 | 0.76 | 59 | 1009.4 |
| 20260905220024 | 33 | 293 | 1.6 | 4.8 | 0.00 | 0.76 | 0.76 | 60 | 1009.4 |
| 20260905215524 | 33 | 290 | 3.2 | 4.8 | 0.00 | 0.76 | 0.76 | 60 | 1009.4 |
| 20260905215003 | 33 | 293 | 3.2 | 6.4 | 0.00 | 0.76 | 0.76 | 59 | 1009.5 |
| 20260905214503 | 33 | 299 | 3.2 | 8.0 | 0.00 | 0.76 | 0.76 | 58 | 1009.6 |
| 20260905214003 | 33 | 298 | 3.2 | 8.0 | 0.00 | 0.76 | 0.76 | 57 | 1009.6 |
| 20260905213503 | 33 | 307 | 1.6 | 3.2 | 0.00 | 0.76 | 0.76 | 57 | 1009.4 |
| 20260905213003 | 33 | 288 | 3.2 | 8.0 | 0.00 | 0.76 | 0.76 | 58 | 1009.3 |
| 20260905212524 | 33 | 270 | 4.8 | 11.3 | 0.00 | 0.76 | 0.76 | 55 | 1009.3 |
| 20260905212003 | 33 | 281 | 3.2 | 11.3 | 0.00 | 0.76 | 0.76 | 55 | 1009.3 |
| 20260905211524 | 33 | 298 | 3.2 | 6.4 | 0.00 | 0.76 | 0.76 | 57 | 1009.4 |
| 20260905211003 | 34 | 295 | 3.2 | 6.4 | 0.00 | 0.76 | 0.76 | 57 | 1009.3 |
| 20260905210503 | 34 | 296 | 3.2 | 6.4 | 0.00 | 0.76 | 0.76 | 53 | 1009.5 |
| 20260905210003 | 34 | 293 | 4.8 | 8.0 | 0.00 | 0.76 | 0.76 | 57 | 1009.4 |
| 20260905205503 | 34 | 289 | 4.8 | 9.7 | 0.00 | 0.76 | 0.76 | 54 | 1009.4 |
| 20260905205003 | 34 | 287 | 3.2 | 9.7 | 0.00 | 0.76 | 0.76 | 53 | 1009.4 |
| 20260905204503 | 34 | 271 | 3.2 | 9.7 | 0.00 | 0.76 | 0.76 | 56 | 1009.4 |
| 20260905204003 | 34 | 259 | 3.2 | 9.7 | 0.00 | 0.76 | 0.76 | 52 | 1009.5 |
| 20260905203503 | 34 | 261 | 3.2 | 11.3 | 0.00 | 0.76 | 0.76 | 50 | 1009.5 |